Вернуться в каталог

DELTA 1 DEB

YO

АктивенHEO
NORAD 28145·DEBRIS·🇺🇸 United States

Запущен Mar 10, 1977 с Cape Canaveral Space Force Station

Loading…

Ближайшие Пролёты (ближайшие 24 часа)

TLE

СвежийSource: Space-Track

Эпоха: Sep 14, 2026, 02:02 UTC

1 28145U 77018F   26257.08483032  .00005329  00000-0  12172-2 0  9997
2 28145  24.4512 203.2994 4796460  31.3278 349.9800  5.92930481460070

Отслеживайте DELTA 1 DEB в реальном времени с AllMySat

Download on the App Store